H1 CPF 2 NER 2022 9 17 9 260 01 glonass139 H2 1808601 9139 43687 2022 9 17 0 0 0 2022 9 20 23 45 0 900 1 1 0 0 0 1 H9 10 0 59839 0.00000 0 9735561.366 -5243060.297 23011986.019 10 0 59839 900.00000 0 11099813.802 -2773783.218 22823094.256 10 0 59839 1800.00000 0 12611452.267 -451656.089 22192132.481 10 0 59839 2700.00000 0 14224906.997 1671897.113 21131263.965 10 0 59839 3600.00000 0 15886910.234 3554932.164 19660960.436 10 0 59839 4500.00000 0 17538640.371 5166484.374 17809615.926 10 0 59839 5400.00000 0 19118118.694 6487607.248 15613009.256 10 0 59839 6300.00000 0 20562759.923 7511907.602 13113624.210 10 0 59839 7200.00000 0 21811970.930 8245555.199 10359839.275 10 0 59839 8100.00000 0 22809689.450 8706766.752 7405001.329 10 0 59839 9000.00000 0 23506756.504 8924785.989 4306400.075 10 0 59839 9900.00000 0 23863022.586 8938402.493 1124162.423 10 0 59839 10800.00000 0 23849098.271 8794071.720 -2079912.236 10 0 59839 11700.00000 0 23447674.418 8543715.548 -5243553.285 10 0 59839 12600.00000 0 22654354.941 8242296.537 -8305232.981 10 0 59839 13500.00000 0 21477965.472 7945269.027 -11205369.236 10 0 59839 14400.00000 0 19940323.335 7706015.714 -13887492.916 10 0 59839 15300.00000 0 18075477.021 7573379.236 -16299355.988 10 0 59839 16200.00000 0 15928445.905 7589394.444 -18393958.096 10 0 59839 17100.00000 0 13553512.070 7787318.665 -20130470.777 10 0 59839 18000.00000 0 11012135.289 8190044.586 -21475040.570 10 0 59839 18900.00000 0 8370578.037 8808964.171 -22401454.901 10 0 59839 19800.00000 0 5697339.687 9643332.802 -22891657.413 10 0 59839 20700.00000 0 3060507.157 10680161.494 -22936102.470 10 0 59839 21600.00000 0 525132.562 11894642.601 -22533941.872 10 0 59839 22500.00000 0 -1849252.765 13251091.676 -21693040.151 10 0 59839 23400.00000 0 -4010884.304 14704366.187 -20429818.245 10 0 59839 24300.00000 0 -5917677.216 16201701.489 -18768928.767 10 0 59839 25200.00000 0 -7538726.986 17684886.717 -16742769.430 10 0 59839 26100.00000 0 -8855336.169 19092688.750 -14390844.437 10 0 59839 27000.00000 0 -9861525.811 20363421.819 -11758986.733 10 0 59839 27900.00000 0 -10564011.915 21437554.216 -8898456.749 10 0 59839 28800.00000 0 -10981649.920 22260241.891 -5864935.931 10 0 59839 29700.00000 0 -11144372.764 22783681.996 -2717435.359 10 0 59839 30600.00000 0 -11091669.413 22969187.139 482858.585 10 0 59839 31500.00000 0 -10870670.008 22788893.077 3673778.172 10 0 59839 32400.00000 0 -10533920.259 22227028.283 6793384.154 10 0 59839 33300.00000 0 -10136940.440 21280692.458 9781167.532 10 0 59839 34200.00000 0 -9735673.061 19960111.826 12579219.703 10 0 59839 35100.00000 0 -9383927.457 18288361.111 15133348.530 10 0 59839 36000.00000 0 -9130929.231 16300564.264 17394119.226 10 0 59839 36900.00000 0 -9019077.515 14042607.669 19317800.701 10 0 59839 37800.00000 0 -9082003.985 11569419.493 20867200.160 10 0 59839 38700.00000 0 -9343014.593 8942886.411 22012371.125 10 0 59839 39600.00000 0 -9813978.884 6229493.635 22731182.374 10 0 59839 40500.00000 0 -10494713.092 3497785.081 23009738.036 10 0 59839 41400.00000 0 -11372882.813 815747.532 22842641.626 10 0 59839 42300.00000 0 -12424429.608 -1751774.295 22233099.473 10 0 59839 43200.00000 0 -13614504.417 -4145526.463 21192861.725 10 0 59839 44100.00000 0 -14898869.813 -6314058.462 19742001.750 10 0 59839 45000.00000 0 -16225713.716 -8215609.443 17908537.522 10 0 59839 45900.00000 0 -17537800.136 -9819590.966 15727901.262 10 0 59839 46800.00000 0 -18774868.259 -11107605.533 13242266.306 10 0 59839 47700.00000 0 -19876180.482 -12073958.984 10499742.916 10 0 59839 48600.00000 0 -20783113.321 -12725645.672 7553457.297 10 0 59839 49500.00000 0 -21441682.782 -13081807.151 4460530.504 10 0 59839 50400.00000 0 -21804897.797 -13172686.944 1280976.319 10 0 59839 51300.00000 0 -21834842.103 -13038125.276 -1923461.018 10 0 59839 52200.00000 0 -21504395.740 -12725657.183 -5090506.775 10 0 59839 53100.00000 0 -20798522.180 -12288294.287 -8158569.691 10 0 59839 54000.00000 0 -19715065.172 -11782084.352 -11067945.816 10 0 59839 54900.00000 0 -18265019.897 -11263552.317 -13761988.071 10 0 59839 55800.00000 0 -16472265.296 -10787131.859 -16188217.766 10 0 59839 56700.00000 0 -14372767.211 -10402697.092 -18299355.641 10 0 59839 57600.00000 0 -12013284.428 -10153299.894 -20054251.515 10 0 59839 58500.00000 0 -9449630.854 -10073209.655 -21418693.695 10 0 59839 59400.00000 0 -6744565.882 -10186339.363 -22366081.918 10 0 59839 60300.00000 0 -3965400.613 -10505125.493 -22877950.339 10 0 59839 61200.00000 0 -1181419.798 -11029909.805 -22944330.128 10 0 59839 62100.00000 0 1538773.086 -11748849.749 -22563944.584 10 0 59839 63000.00000 0 4129877.005 -12638361.678 -21744232.916 10 0 59839 63900.00000 0 6532371.535 -13664078.356 -20501202.348 10 0 59839 64800.00000 0 8694749.058 -14782280.356 -18859111.576 10 0 59839 65700.00000 0 10575408.399 -15941740.784 -16849991.958 10 0 59839 66600.00000 0 12144131.642 -17085905.146 -14513016.117 10 0 59839 67500.00000 0 13383083.622 -18155313.912 -11893726.670 10 0 59839 68400.00000 0 14287293.787 -19090165.063 -9043140.643 10 0 59839 69300.00000 0 14864602.044 -19832907.925 -6016747.684 10 0 59839 70200.00000 0 15135072.900 -20330758.398 -2873422.339 10 0 59839 71100.00000 0 15129904.716 -20538029.143 325727.730 10 0 59839 72000.00000 0 14889882.060 -20418176.270 3518554.340 10 0 59839 72900.00000 0 14463438.341 -19945476.325 6643078.408 10 0 59839 73800.00000 0 13904412.060 -19106263.120 9638692.708 10 0 59839 74700.00000 0 13269592.519 -17899672.755 12447334.140 10 0 59839 75600.00000 0 12616159.282 -16337865.886 15014603.006 10 0 59839 76500.00000 0 11999123.573 -14445718.222 17290808.099 10 0 59839 77400.00000 0 11468879.220 -12259992.401 19231918.145 10 0 59839 78300.00000 0 11068965.661 -9828025.711 20800402.299 10 0 59839 79200.00000 0 10834136.296 -7205987.912 21965944.693 10 0 59839 80100.00000 0 10788812.406 -4456780.909 22706020.460 10 0 59839 81000.00000 0 10945986.751 -1647666.372 23006323.296 10 0 59839 81900.00000 0 11306622.227 1152281.769 22861037.250 10 0 59839 82800.00000 0 11859570.547 3874795.920 22272948.045 10 0 59839 83700.00000 0 12582014.512 6454997.826 21253391.990 10 0 59839 84600.00000 0 13440415.943 8833840.723 19822043.173 10 0 59839 85500.00000 0 14391930.444 10960310.851 18006542.403 10 0 59840 0.00000 0 15386230.796 12793298.240 15841974.247 10 0 59840 900.00000 0 16367664.268 14303060.918 13370199.764 10 0 59840 1800.00000 0 17277653.095 15472219.820 10639059.568 10 0 59840 2700.00000 0 18057239.959 16296246.533 7701457.400 10 0 59840 3600.00000 0 18649670.609 16783421.004 4614343.701 10 0 59840 4500.00000 0 19002905.463 16954261.900 1437617.002 10 0 59840 5400.00000 0 19071953.848 16840453.167 -1767035.877 10 0 59840 6300.00000 0 18820931.507 16483311.796 -4937338.429 10 0 59840 7200.00000 0 18224753.227 15931861.250 -8011638.243 10 0 59840 8100.00000 0 17270387.522 15240592.017 -10930111.841 10 0 59840 9000.00000 0 15957618.543 14467004.166 -13635936.441 10 0 59840 9900.00000 0 14299281.213 13669036.293 -16076404.824 10 0 59840 10800.00000 0 12320957.779 12902490.271 -18203960.817 10 0 59840 11700.00000 0 10060146.819 12218561.475 -19977134.387 10 0 59840 12600.00000 0 7564938.202 11661579.740 -21361357.368 10 0 59840 13500.00000 0 4892248.371 11267057.345 -22329643.453 10 0 59840 14400.00000 0 2105688.956 11060127.178 -22863118.815 10 0 59840 15300.00000 0 -726842.673 11054437.610 -22951392.772 10 0 59840 16200.00000 0 -3535750.663 11251551.099 -22592761.202 10 0 59840 17100.00000 0 -6252398.046 11640872.033 -21794238.751 10 0 59840 18000.00000 0 -8811723.444 12200106.837 -20571419.291 10 0 59840 18900.00000 0 -11154708.257 12896236.609 -18948167.513 10 0 59840 19800.00000 0 -13230591.811 13686960.842 -16956147.866 10 0 59840 20700.00000 0 -14998742.500 14522550.632 -14634200.386 10 0 59840 21600.00000 0 -16430107.708 15348032.443 -12027575.962 10 0 59840 22500.00000 0 -17508183.059 16105609.424 -9187046.441 10 0 59840 23400.00000 0 -18229461.873 16737217.220 -6167907.615 10 0 59840 24300.00000 0 -18603347.808 17187105.599 -3028895.189 10 0 59840 25200.00000 0 -18651536.329 17404336.289 168964.422 10 0 59840 26100.00000 0 -18406893.034 17345091.090 3363545.279 10 0 59840 27000.00000 0 -17911878.023 16974692.680 6492831.320 10 0 59840 27900.00000 0 -17216584.445 16269252.843 9496120.067 10 0 59840 28800.00000 0 -16376475.249 15216878.837 12315196.983 10 0 59840 29700.00000 0 -15449914.465 13818387.394 14895457.893 10 0 59840 30600.00000 0 -14495597.443 12087496.516 17186958.217 10 0 59840 31500.00000 0 -13569988.185 10050487.165 19145369.434 10 0 59840 32400.00000 0 -12724871.022 7745348.831 20732825.373 10 0 59840 33300.00000 0 -12005118.667 5220444.167 21918643.238 10 0 59840 34200.00000 0 -11446769.271 2532747.573 22679906.631 10 0 59840 35100.00000 0 -11075492.022 -254270.172 23001900.532 10 0 59840 36000.00000 0 -10905504.561 -3073024.909 22878390.789 10 0 59840 36900.00000 0 -10938986.867 -5854372.487 22311743.289 10 0 59840 37800.00000 0 -11166015.701 -8530228.534 21312880.757 10 0 59840 38700.00000 0 -11565022.416 -11036147.877 19901077.731 10 0 59840 39600.00000 0 -12103755.308 -13313758.246 18103597.057 10 0 59840 40500.00000 0 -12740706.917 -15312948.722 15955173.919 10 0 59840 41400.00000 0 -13426947.283 -16993723.128 13497356.110 10 0 59840 42300.00000 0 -14108287.150 -18327641.882 10777712.043 10 0 59840 43200.00000 0 -14727681.010 -19298792.586 7848920.464 10 0 59840 44100.00000 0 -15227769.417 -19904248.854 4767758.390 10 0 59840 45000.00000 0 -15553453.672 -20153997.922 1594006.077 10 0 59840 45900.00000 0 -15654394.001 -20070339.766 -1610710.256 10 0 59840 46800.00000 0 -15487325.080 -19686782.621 -4784115.619 10 0 59840 47700.00000 0 -15018089.925 -19046481.095 -7864499.807 10 0 59840 48600.00000 0 -14223304.702 -18200282.577 -10791923.196 10 0 59840 49500.00000 0 -13091582.309 -17204464.437 -13509390.628 10 0 59840 50400.00000 0 -11624261.122 -16118257.806 -15963969.569 10 0 59840 51300.00000 0 -9835606.166 -15001262.963 -18107829.932 10 0 59840 52200.00000 0 -7752472.281 -13910866.081 -19899184.507 10 0 59840 53100.00000 0 -5413441.757 -12899767.041 -21303110.904 10 0 59840 54000.00000 0 -2867471.139 -12013723.321 -22292238.523 10 0 59840 54900.00000 0 -172102.691 -11289605.666 -22847286.752 10 0 59840 55800.00000 0 2608685.397 -10753847.968 -22957443.683 10 0 59840 56700.00000 0 5406900.878 -10421356.879 -22620577.863 10 0 59840 57600.00000 0 8153130.613 -10294927.074 -21843278.973 10 0 59840 58500.00000 0 10779196.991 -10365186.539 -20640726.684 10 0 59840 59400.00000 0 13220766.961 -10611073.646 -19036390.429 10 0 59840 60300.00000 0 15419805.069 -11000825.175 -17061566.132 10 0 59840 61200.00000 0 17326768.335 -11493432.682 -14754759.261 10 0 59840 62100.00000 0 18902451.915 -12040504.707 -12160926.630 10 0 59840 63000.00000 0 20119409.227 -12588455.099 -9330592.226 10 0 59840 63900.00000 0 20962888.173 -13080923.903 -6318854.980 10 0 59840 64800.00000 0 21431245.728 -13461327.518 -3184308.502 10 0 59840 65700.00000 0 21535825.204 -13675429.420 12105.458 10 0 59840 66600.00000 0 21300303.151 -13673822.171 3208286.671 10 0 59840 67500.00000 0 20759535.276 -13414215.384 6342185.496 10 0 59840 68400.00000 0 19957951.690 -12863432.803 9353007.412 10 0 59840 69300.00000 0 18947570.488 -11999034.246 12182389.369 10 0 59840 70200.00000 0 17785714.421 -10810494.200 14775525.274 10 0 59840 71100.00000 0 16532527.311 -9299887.556 17082219.326 10 0 59840 72000.00000 0 15248394.772 -7482053.809 19057847.484 10 0 59840 72900.00000 0 13991377.209 -5384232.682 20664209.571 10 0 59840 73800.00000 0 12814762.004 -3045185.953 21870256.766 10 0 59840 74700.00000 0 11764836.411 -513841.441 22652681.661 10 0 59840 75600.00000 0 10878973.153 2152485.523 22996360.669 10 0 59840 76500.00000 0 10184107.523 4890220.629 22894641.239 10 0 59840 77400.00000 0 9695668.596 7631922.373 22349468.908 10 0 59840 78300.00000 0 9417008.336 10308839.721 21371352.003 10 0 59840 79200.00000 0 9339351.959 12853531.435 19979164.427 10 0 59840 80100.00000 0 9442271.499 15202440.083 18199789.745 10 0 59840 81000.00000 0 9694662.947 17298315.427 16067612.437 10 0 59840 81900.00000 0 10056186.504 19092387.685 13623864.923 10 0 59840 82800.00000 0 10479110.126 20546200.939 10915841.693 10 0 59840 83700.00000 0 10910479.550 21633030.673 7995994.437 10 0 59840 84600.00000 0 11294523.980 22338826.287 4920924.524 10 0 59840 85500.00000 0 11575196.314 22662638.782 1750291.586 10 0 59841 0.00000 0 11698740.597 22616515.287 -1454340.904 10 0 59841 900.00000 0 11616177.789 22224864.186 -4630702.519 10 0 59841 1800.00000 0 11285603.674 21523317.139 -7717027.404 10 0 59841 2700.00000 0 10674200.642 20557135.441 -10653262.131 10 0 59841 3600.00000 0 9759876.382 19379227.611 -13382241.377 10 0 59841 4500.00000 0 8532458.439 18047861.847 -15850809.337 10 0 59841 5400.00000 0 6994392.154 16624170.002 -18010863.882 10 0 59841 6300.00000 0 5160910.483 15169548.699 -19820302.344 10 0 59841 7200.00000 0 3059666.678 13743067.642 -21243849.691 10 0 59841 8100.00000 0 729843.542 12398994.843 -22253752.461 10 0 59841 9000.00000 0 -1779224.829 11184543.408 -22830324.536 10 0 59841 9900.00000 0 -4409862.122 10137935.095 -22962333.862 10 0 59841 10800.00000 0 -7098214.859 9286862.203 -22647222.478 10 0 59841 11700.00000 0 -9776683.457 8647412.353 -21891155.582 10 0 59841 12600.00000 0 -12376518.006 8223500.997 -20708898.738 10 0 59841 13500.00000 0 -14830470.579 8006834.801 -19123525.792 10 0 59841 14400.00000 0 -17075393.446 7977406.495 -17165963.372 10 0 59841 15300.00000 0 -19054674.782 8104499.162 -14874381.211 10 0 59841 16200.00000 0 -20720410.390 8348156.288 -12293440.540 10 0 59841 17100.00000 0 -22035221.127 8661054.125 -9473415.698 10 0 59841 18000.00000 0 -22973640.670 8990695.904 -6469206.741 10 0 59841 18900.00000 0 -23523016.565 9281833.827 -3339262.995 10 0 59841 19800.00000 0 -23683888.094 9479015.265 -144439.198 10 0 59841 20700.00000 0 -23469826.636 9529144.562 3053192.616 10 0 59841 21600.00000 0 -22906746.911 9383951.403 6191551.850 10 0 59841 22500.00000 0 -22031719.719 9002261.002 9209754.686 10 0 59841 23400.00000 0 -20891337.574 8351970.067 12049292.388 10 0 59841 24300.00000 0 -19539703.141 7411645.178 14655159.828 10 0 59841 25200.00000 0 -18036125.796 6171676.348 16976912.827 10 0 59841 26100.00000 0 -16442623.291 4634937.322 18969634.558 10 0 59841 27000.00000 0 -14821333.159 2816924.868 20594793.358 10 0 59841 27900.00000 0 -13231941.592 745370.846 21820976.633 10 0 59841 28800.00000 0 -11729236.379 -1540657.285 22624487.854 10 0 59841 29700.00000 0 -10360884.879 -3992131.038 22989796.373 10 0 59841 30600.00000 0 -9165528.361 -6551854.642 22909832.316 10 0 59841 31500.00000 0 -8171270.952 -9156604.950 22386121.513 10 0 59841 32400.00000 0 -7394624.944 -11739530.424 21428758.092 10 0 59841 33300.00000 0 -6839955.581 -14232711.508 20056215.092 10 0 59841 34200.00000 0 -6499447.901 -16569777.771 18294996.131 10 0 59841 35100.00000 0 -6353596.762 -18688474.747 16179133.912 10 0 59841 36000.00000 0 -6372199.571 -20533075.011 13749544.020 10 0 59841 36900.00000 0 -6515810.440 -22056533.934 11053245.221 10 0 59841 37800.00000 0 -6737595.066 -23222300.685 8142460.041 10 0 59841 38700.00000 0 -6985508.723 -24005708.873 5073611.854 10 0 59841 39600.00000 0 -7204705.865 -24394888.248 1906237.106 10 0 59841 40500.00000 0 -7340079.610 -24391158.659 -1298166.773 10 0 59841 41400.00000 0 -7338823.488 -24008888.970 -4477335.641 10 0 59841 42300.00000 0 -7152906.382 -23274826.032 -7569451.566 10 0 59841 43200.00000 0 -6741354.801 -22226921.264 -10514350.403 10 0 59841 44100.00000 0 -6072244.442 -20912703.678 -13254699.800 10 0 59841 45000.00000 0 -5124315.055 -19387267.560 -15737123.787 10 0 59841 45900.00000 0 -3888138.428 -17710959.479 -17913251.190 10 0 59841 46800.00000 0 -2366788.123 -15946862.140 -19740666.656 10 0 59841 47700.00000 0 -575980.829 -14158181.288 -21183744.954 10 0 59841 48600.00000 0 1456318.484 -12405645.944 -22214351.798 10 0 59841 49500.00000 0 3690812.641 -10745031.605 -22812397.138 10 0 59841 50400.00000 0 6078272.382 -9224910.767 -22966229.846 10 0 59841 51300.00000 0 8561362.873 -7884725.294 -22672866.039 10 0 59841 52200.00000 0 11076820.897 -6753261.375 -21938046.552 10 0 59841 53100.00000 0 13557891.982 -5847590.681 -20776122.529 10 0 59841 54000.00000 0 15936925.827 -5172521.380 -19209771.493 10 0 59841 54900.00000 0 18148021.610 -4720580.993 -17269549.638 10 0 59841 55800.00000 0 20129612.510 -4472530.510 -14993289.405 10 0 59841 56700.00000 0 21826881.457 -4398386.516 -12425354.447 10 0 59841 57600.00000 0 23193907.189 -4458906.600 -9615767.030 10 0 59841 58500.00000 0 24195451.105 -4607473.667 -6619225.514 10 0 59841 59400.00000 0 24808310.721 -4792297.926 -3494031.767 10 0 59841 60300.00000 0 25022183.901 -4958841.974 -300950.109 10 0 59841 61200.00000 0 24840008.767 -5052365.222 2897979.171 10 0 59841 62100.00000 0 24277766.404 -5020479.043 6040648.046 10 0 59841 63000.00000 0 23363756.104 -4815603.941 9066086.800 10 0 59841 63900.00000 0 22137374.971 -4397224.586 11915644.164 10 0 59841 64800.00000 0 20647454.328 -3733847.341 14534118.793 10 0 59841 65700.00000 0 18950223.588 -2804577.829 16870820.588 10 0 59841 66600.00000 0 17106987.421 -1600252.231 18880541.984 10 0 59841 67500.00000 0 15181613.446 -124074.817 20524421.494 10 0 59841 68400.00000 0 13237935.010 1608265.208 21770684.011 10 0 59841 69300.00000 0 11337176.655 3569002.817 22595244.774 10 0 59841 70200.00000 0 9535508.406 5719215.950 22982166.576 10 0 59841 71100.00000 0 7881829.365 8010216.804 22923962.358 10 0 59841 72000.00000 0 6415871.423 10385359.106 22421737.988 10 0 59841 72900.00000 0 5166700.637 12782187.874 21485172.784 10 0 59841 73800.00000 0 4151677.361 15134844.161 20132337.949 10 0 59841 74700.00000 0 3375917.593 17376626.518 18389355.864 10 0 59841 75600.00000 0 2832277.303 19442604.359 16289905.869 10 0 59841 76500.00000 0 2501860.076 21272175.808 13874584.874 10 0 59841 77400.00000 0 2355026.795 22811464.389 11190133.859 10 0 59841 78300.00000 0 2352865.163 24015455.089 8288543.928 10 0 59841 79200.00000 0 2449057.500 24849780.610 5226058.035 10 0 59841 80100.00000 0 2592068.418 25292082.633 2062086.887 10 0 59841 81000.00000 0 2727560.097 25332890.373 -1141940.492 10 0 59841 81900.00000 0 2800932.903 24975978.585 -4323769.491 10 0 59841 82800.00000 0 2759883.403 24238188.948 -7421532.448 10 0 59841 83700.00000 0 2556870.584 23148721.319 -10374957.037 10 0 59841 84600.00000 0 2151384.636 21747923.792 -13126546.257 10 0 59841 85500.00000 0 1511920.759 20085631.798 -15622706.159 10 0 59842 0.00000 0 617572.818 18219125.889 -17814798.331 10 0 59842 900.00000 0 -540822.957 16210792.845 -19660096.911 10 0 59842 1800.00000 0 -1960043.083 14125591.064 -21122627.849 10 0 59842 2700.00000 0 -3624361.403 12028423.474 -22173877.438 10 0 59842 3600.00000 0 -5505968.498 9981530.964 -22793352.878 10 0 59842 4500.00000 0 -7565910.111 8042014.918 -22968984.908 10 0 59842 5400.00000 0 -9755506.241 6259592.905 -22697364.367 10 0 59842 6300.00000 0 -12018192.255 4674681.432 -21983808.011 10 0 59842 7200.00000 0 -14291705.302 3316885.701 -20842252.440 10 0 59842 8100.00000 0 -16510524.780 2203958.915 -19294978.303 10 0 59842 9000.00000 0 -18608464.724 1341273.657 -17372170.384 10 0 59842 9900.00000 0 -20521309.458 721826.198 -15111322.455 10 0 59842 10800.00000 0 -22189382.062 326771.854 -12556498.904 10 0 59842 11700.00000 0 -23559937.972 126467.025 -9757467.963 10 0 59842 12600.00000 0 -24589283.441 81972.094 -6768724.139 10 0 59842 13500.00000 0 -25244530.314 146949.859 -3648419.524 10 0 59842 14400.00000 0 -25504914.034 269877.546 -457225.572 10 0 59842 15300.00000 0 -25362620.311 396477.353 2742851.732 10 0 59842 16200.00000 0 -24823086.813 472261.492 5889679.601 10 0 59842 17100.00000 0 -23904768.342 445083.180 8922205.170 10 0 59842 18000.00000 0 -22638376.549 267585.200 11781637.447 10 0 59842 18900.00000 0 -21065627.204 -100557.657 14412581.666 10 0 59842 19800.00000 0 -19237548.352 -690696.877 16764104.517 10 0 59842 20700.00000 0 -17212420.773 -1523650.900 18790710.246 10 0 59842 21600.00000 0 -15053436.935 -2608593.603 20453209.828 10 0 59842 22500.00000 0 -12826175.832 -3942437.237 21719467.600 10 0 59842 23400.00000 0 -10595998.275 -5509735.807 22565012.145 10 0 59842 24300.00000 0 -8425469.931 -7283113.450 22973500.861 10 0 59842 25200.00000 0 -6371917.858 -9224200.791 22937030.238 10 0 59842 26100.00000 0 -4485220.650 -11285041.358 22456286.530 10 0 59842 27000.00000 0 -2805922.401 -13409910.988 21540534.196 10 0 59842 27900.00000 0 -1363747.421 -15537476.166 20207442.190 10 0 59842 28800.00000 0 -176576.348 -17603203.113 18482750.893 10 0 59842 29700.00000 0 750074.727 -19541919.001 16399785.190 10 0 59842 30600.00000 0 1423051.013 -21290419.996 13998821.895 10 0 59842 31500.00000 0 1861032.061 -22790018.352 11326322.484 10 0 59842 32400.00000 0 2093503.313 -23988922.862 8434044.649 10 0 59842 33300.00000 0 2159269.238 -24844353.233 5378048.693 10 0 59842 34200.00000 0 2104570.467 -25324299.514 2217617.165 10 0 59842 35100.00000 0 1980884.245 -25408852.044 -985891.898 10 0 59842 36000.00000 0 1842501.198 -25091045.052 -4170236.114 10 0 59842 36900.00000 0 1743981.215 -24377177.180 -7273500.901 10 0 59842 37800.00000 0 1737596.782 -23286594.203 -10235308.615 10 0 59842 38700.00000 0 1870873.045 -21850941.811 -12998000.502 10 0 59842 39600.00000 0 2184329.991 -20112918.874 -15507767.514 10 0 59842 40500.00000 0 2709523.861 -18124582.811 -17715707.124 10 0 59842 41400.00000 0 3467472.330 -15945277.716 -19578784.748 10 0 59842 42300.00000 0 4467531.696 -13639272.017 -21060680.227 10 0 59842 43200.00000 0 5706775.195 -11273204.689 -22132502.350 10 0 59842 44100.00000 0 7169900.245 -8913447.136 -22773357.063 10 0 59842 45000.00000 0 8829669.876 -6623491.366 -22970758.024 10 0 59842 45900.00000 0 10647870.908 -4461473.830 -22720871.383 10 0 59842 46800.00000 0 12576749.522 -2477938.370 -22028589.984 10 0 59842 47700.00000 0 14560864.438 -713931.591 -20907435.638 10 0 59842 48600.00000 0 16539280.265 800490.337 -19379291.488 10 0 59842 49500.00000 0 18448009.077 2047281.933 -17473969.891 10 0 59842 50400.00000 0 20222597.626 3020914.225 -15228624.564 10 0 59842 51300.00000 0 21800751.444 3728346.589 -12687018.830 10 0 59842 52200.00000 0 23124885.507 4188467.674 -9898664.700 10 0 59842 53100.00000 0 24144494.162 4431030.952 -6917850.259 10 0 59842 54000.00000 0 24818240.832 4495131.849 -3802574.944 10 0 59842 54900.00000 0 25115679.896 4427292.717 -613414.211 10 0 59842 55800.00000 0 25018538.846 4279238.325 2587663.516 10 0 59842 56700.00000 0 24521507.504 4105457.432 5738503.975 10 0 59842 57600.00000 0 23632502.021 3960654.703 8777974.344 10 0 59842 58500.00000 0 22372393.460 3897201.430 11647146.911 10 0 59842 59400.00000 0 20774213.297 3962693.195 14290436.242 10 0 59842 60300.00000 0 18881869.836 4197717.619 16656668.272 10 0 59842 61200.00000 0 16748429.789 4633926.141 18700061.196 10 0 59842 62100.00000 0 14434036.940 5292490.695 20381100.267 10 0 59842 63000.00000 0 12003554.431 6183009.909 21667290.759 10 0 59842 63900.00000 0 9524028.244 7302910.551 22533775.749 10 0 59842 64800.00000 0 7062076.285 8637369.447 22963808.044 10 0 59842 65700.00000 0 4681310.146 10159759.636 22949068.127 10 0 59842 66600.00000 0 2439895.085 11832602.903 22489822.672 10 0 59842 67500.00000 0 388347.807 13608990.169 21594920.917 10 0 59842 68400.00000 0 -1432338.156 15434411.941 20281628.792 10 0 59842 69300.00000 0 -2992162.952 17248924.054 18575303.510 10 0 59842 70200.00000 0 -4273126.856 18989559.995 16508913.978 10 0 59842 71100.00000 0 -5269731.609 20592890.612 14122415.086 10 0 59842 72000.00000 0 -5988956.240 21997625.398 11461986.722 10 0 59842 72900.00000 0 -6449708.656 23147147.360 8579150.880 10 0 59842 73800.00000 0 -6681776.098 23991875.618 5529782.766 10 0 59842 74700.00000 0 -6724318.432 24491356.441 2373034.199 10 0 59842 75600.00000 0 -6623967.707 24615994.288 -829810.421 10 0 59842 76500.00000 0 -6432614.182 24348349.024 -4016523.645 10 0 59842 77400.00000 0 -6204972.562 23683943.423 -7125146.653 10 0 59842 78300.00000 0 -5996031.876 22631545.474 -10095199.108 10 0 59842 79200.00000 0 -5858497.698 21212912.107 -12868863.002 10 0 59842 80100.00000 0 -5840336.009 19462003.720 -15392116.506 10 0 59842 81000.00000 0 -5982523.957 17423701.353 -17615794.922 10 0 59842 81900.00000 0 -6317104.101 15152079.440 -19496557.244 10 0 59842 82800.00000 0 -6865625.918 12708306.033 -20997738.673 10 0 59842 83700.00000 0 -7638041.918 10158258.161 -22090071.941 10 0 59842 84600.00000 0 -8632106.379 7569951.966 -22752262.952 10 0 59842 85500.00000 0 -9833303.271 5010895.217 -22971409.206 99